GW3800 Weather Reports


time (UTC)temp
C
wind
direction
speed
KPH
gust
KPH
rain 1hr
cm
rain 24hr
cm
rain mn
cm
humidity
%
barometer
mb
20260508111433 4 295 1.6 3.2 0.00 0.00 0.00 83 1011.3
20260508110930 4 275 1.6 1.6 0.00 0.00 0.00 82 1011.3
20260508110428 4 237 1.6 1.6 0.00 0.00 0.00 82 1011.2
20260508105927 4 203 3.2 4.8 0.00 0.00 0.00 81 1011.3
20260508105424 4 233 0.0 1.6 0.00 0.00 0.00 80 1011.1
20260508104921 4 238 0.0 3.2 0.00 0.00 0.00 79 1011.2
20260508104419 4 242 0.0 1.6 0.00 0.00 0.00 79 1011.1
20260508103915 4 260 1.6 1.6 0.00 0.00 0.00 78 1011.2
20260508103412 4 280 0.0 0.0 0.00 0.00 0.00 77 1011.1
20260508102909 4 234 1.6 3.2 0.00 0.00 0.00 76 1011.0
20260508102408 4 231 0.0 1.6 0.00 0.00 0.00 75 1010.9
20260508101905 4 231 0.0 0.0 0.00 0.00 0.00 75 1010.8
20260508101402 4 231 1.6 1.6 0.00 0.00 0.00 75 1011.0
20260508100859 4 231 0.0 0.0 0.00 0.00 0.00 73 1010.9
20260508100358 4 230 1.6 1.6 0.00 0.00 0.00 73 1011.0
20260508095853 4 236 0.0 1.6 0.00 0.00 0.00 72 1010.9
20260508095352 5 254 1.6 1.6 0.00 0.00 0.00 72 1010.9
20260508094848 5 233 1.6 4.8 0.00 0.00 0.00 71 1010.8
20260508094345 4 232 1.6 3.2 0.00 0.00 0.00 71 1010.6
20260508093842 4 248 1.6 3.2 0.00 0.00 0.00 73 1010.7
20260508093339 4 232 1.6 3.2 0.00 0.00 0.00 71 1010.6
20260508092836 3 130 1.6 4.8 0.00 0.00 0.00 71 1010.5
20260508092334 3 232 1.6 1.6 0.00 0.00 0.00 74 1010.5
20260508091832 3 232 1.6 1.6 0.00 0.00 0.00 74 1010.4
20260508091328 3 232 0.0 1.6 0.00 0.00 0.00 73 1010.3
20260508090826 3 232 0.0 0.0 0.00 0.00 0.00 73 1010.2
20260508090325 3 232 0.0 0.0 0.00 0.00 0.00 74 1010.1
20260508085820 3 232 0.0 0.0 0.00 0.00 0.00 74 1010.1
20260508085317 3 232 0.0 0.0 0.00 0.00 0.00 74 1010.4
20260508084814 3 232 0.0 0.0 0.00 0.00 0.00 75 1010.3
20260508084311 3 232 0.0 0.0 0.00 0.00 0.00 78 1010.0
20260508083808 3 232 0.0 0.0 0.00 0.00 0.00 76 1010.0
20260508083306 3 232 0.0 0.0 0.00 0.00 0.00 79 1009.9
20260508082805 2 232 0.0 0.0 0.00 0.00 0.00 76 1009.9
20260508082306 2 232 0.0 0.0 0.00 0.00 0.00 80 1009.8
20260508081800 2 232 0.0 0.0 0.00 0.00 0.00 81 1009.8
20260508081257 2 232 0.0 0.0 0.00 0.00 0.00 78 1009.8
20260508080754 2 232 0.0 0.0 0.00 0.00 0.00 80 1009.8
20260508080252 2 232 0.0 0.0 0.00 0.00 0.00 80 1010.0
20260508075748 2 232 0.0 0.0 0.00 0.00 0.00 82 1009.7
20260508075245 2 232 0.0 0.0 0.00 0.00 0.00 82 1009.8
20260508074743 2 232 0.0 0.0 0.00 0.00 0.00 81 1009.8
20260508074240 2 232 0.0 0.0 0.00 0.00 0.00 81 1009.7
20260508073737 2 232 0.0 0.0 0.00 0.00 0.00 79 1009.5
20260508073235 2 232 0.0 0.0 0.00 0.00 0.00 80 1009.7
20260508072731 2 232 0.0 0.0 0.00 0.00 0.00 79 1009.5
20260508072228 2 232 0.0 0.0 0.00 0.00 0.00 77 1009.6
20260508071725 2 232 0.0 0.0 0.00 0.00 0.00 79 1009.6
20260508071223 2 232 0.0 0.0 0.00 0.00 0.00 78 1009.8
20260508070720 2 232 0.0 0.0 0.00 0.00 0.00 81 1009.6
20260508070219 2 232 0.0 0.0 0.00 0.00 0.00 81 1009.7
20260508065716 2 232 0.0 0.0 0.00 0.00 0.00 81 1009.5
20260508065214 2 232 0.0 0.0 0.00 0.00 0.00 80 1009.6
20260508064711 2 232 0.0 0.0 0.00 0.00 0.00 77 1009.4
20260508064209 2 232 0.0 0.0 0.00 0.00 0.00 76 1009.6
20260508063706 2 232 0.0 0.0 0.00 0.00 0.00 75 1009.6
20260508063204 2 232 0.0 0.0 0.00 0.00 0.00 79 1009.6
20260508062701 2 232 0.0 0.0 0.00 0.00 0.00 81 1009.6
20260508062158 2 232 0.0 0.0 0.00 0.00 0.00 79 1009.6
20260508061655 2 232 0.0 0.0 0.00 0.00 0.00 77 1009.9
20260508061153 2 232 0.0 0.0 0.00 0.00 0.00 75 1009.7
20260508060649 2 232 0.0 0.0 0.00 0.00 0.00 76 1009.8
20260508060147 2 232 0.0 0.0 0.00 0.00 0.00 77 1009.9
20260508055642 2 232 0.0 0.0 0.00 0.00 0.00 77 1009.9
20260508055139 1 232 0.0 0.0 0.00 0.00 0.00 82 1009.8
20260508054635 1 232 0.0 0.0 0.00 0.00 0.00 80 1009.9
20260508054133 1 232 0.0 0.0 0.00 0.00 0.00 80 1009.9
20260508053630 1 232 0.0 0.0 0.00 0.00 0.00 80 1009.9
20260508053128 1 232 0.0 0.0 0.00 0.00 0.00 80 1009.9
20260508052625 1 232 0.0 0.0 0.00 0.00 0.00 78 1010.1
20260508052122 1 232 0.0 0.0 0.00 0.00 0.00 79 1010.2
20260508051618 1 232 0.0 0.0 0.00 0.00 0.00 81 1010.1
20260508051113 1 232 0.0 0.0 0.00 0.00 0.00 78 1010.2
20260508050610 1 232 0.0 0.0 0.00 0.00 0.00 78 1010.1
20260508050108 1 232 0.0 0.0 0.00 0.00 0.00 80 1009.8
20260508045603 2 232 0.0 0.0 0.00 0.00 0.00 80 1010.0
20260508045101 1 232 0.0 0.0 0.00 0.00 0.00 82 1009.9
20260508044558 2 232 0.0 0.0 0.00 0.00 0.00 79 1010.1
20260508044054 2 232 0.0 0.0 0.00 0.00 0.00 76 1010.1
20260508043551 2 232 0.0 0.0 0.00 0.00 0.00 75 1010.0
20260508043049 2 232 0.0 1.6 0.00 0.00 0.00 72 1010.1
20260508042545 2 232 0.0 0.0 0.00 0.00 0.00 69 1009.7
20260508042042 2 232 0.0 0.0 0.00 0.00 0.00 72 1009.8
20260508041538 2 232 0.0 0.0 0.00 0.00 0.00 72 1009.7
20260508041035 2 232 0.0 0.0 0.00 0.00 0.00 68 1009.8
20260508040532 2 232 0.0 0.0 0.00 0.00 0.00 68 1009.5
20260508040030 3 232 0.0 0.0 0.00 0.00 0.00 66 1009.7
20260508035526 2 232 0.0 0.0 0.00 0.00 0.00 67 1009.6
20260508035024 3 232 0.0 0.0 0.00 0.00 0.00 74 1009.6
20260508034521 3 232 0.0 0.0 0.00 0.00 0.00 69 1009.6
20260508034018 3 232 0.0 0.0 0.00 0.00 0.00 65 1009.7
20260508033515 3 232 0.0 0.0 0.00 0.00 0.00 62 1009.7
20260508033013 3 232 0.0 0.0 0.00 0.00 0.00 61 1009.8
20260508032510 4 232 0.0 0.0 0.00 0.00 0.00 61 1009.7
20260508032007 4 232 0.0 0.0 0.00 0.00 0.00 59 1010.0
20260508031505 4 232 0.0 0.0 0.00 0.00 0.00 59 1009.9
20260508030959 5 232 0.0 0.0 0.00 0.00 0.00 58 1009.9
20260508030457 5 232 0.0 0.0 0.00 0.00 0.00 59 1009.9
20260508025954 5 232 0.0 0.0 0.00 0.00 0.00 58 1009.6
20260508025450 5 232 0.0 0.0 0.00 0.00 0.00 60 1009.7
20260508024948 5 232 0.0 0.0 0.00 0.00 0.00 58 1009.8
20260508024443 5 232 0.0 0.0 0.00 0.00 0.00 55 1009.8
20260508023941 5 232 0.0 0.0 0.00 0.00 0.00 60 1009.9
20260508023437 5 232 0.0 0.0 0.00 0.00 0.00 56 1010.1
20260508022935 5 232 1.6 1.6 0.00 0.00 0.00 57 1009.9
20260508022430 5 232 0.0 0.0 0.00 0.00 0.00 56 1009.8
20260508021927 5 235 0.0 0.0 0.00 0.00 0.00 58 1009.9
20260508021423 5 235 0.0 0.0 0.00 0.00 0.00 58 1009.9
20260508020919 5 235 0.0 0.0 0.00 0.00 0.00 58 1009.8
20260508020418 5 235 0.0 0.0 0.00 0.00 0.00 60 1009.8
20260508015914 5 235 0.0 0.0 0.00 0.00 0.00 57 1009.9
20260508015412 5 235 0.0 0.0 0.00 0.00 0.00 57 1009.7
20260508014908 5 235 0.0 0.0 0.00 0.00 0.00 56 1009.8
20260508014406 5 235 0.0 0.0 0.00 0.00 0.00 56 1009.8
20260508013902 5 235 0.0 0.0 0.00 0.00 0.00 55 1009.7
20260508013357 5 235 0.0 0.0 0.00 0.00 0.00 54 1009.6
20260508012855 5 235 0.0 0.0 0.00 0.00 0.00 54 1009.5
20260508012352 5 235 0.0 0.0 0.00 0.00 0.00 55 1009.4
20260508011849 5 235 0.0 0.0 0.00 0.00 0.00 54 1009.4
20260508011347 5 235 0.0 0.0 0.00 0.00 0.00 51 1009.4
20260508010844 5 235 0.0 0.0 0.00 0.00 0.00 51 1009.4
20260508010341 5 235 0.0 0.0 0.00 0.00 0.00 51 1009.3
20260508005839 6 235 0.0 0.0 0.00 0.00 0.00 50 1009.4
20260508005335 6 235 0.0 0.0 0.00 0.00 0.00 50 1009.3
20260508004831 7 235 0.0 0.0 0.00 0.00 0.00 45 1009.1
20260508004328 7 235 0.0 1.6 0.00 0.00 0.00 45 1009.1
20260508003824 7 235 1.6 1.6 0.00 0.00 0.00 42 1009.3
20260508003322 7 240 0.0 1.6 0.00 0.00 0.00 43 1008.9
20260508002819 7 220 0.0 3.2 0.00 0.00 0.00 41 1009.0
20260508002315 7 257 0.0 1.6 0.00 0.00 0.00 43 1009.0
20260508001811 8 261 0.0 0.0 0.00 0.00 0.00 42 1008.8
20260508001307 8 261 0.0 1.6 0.00 0.00 0.00 40 1008.8
20260508000803 8 235 0.0 3.2 0.00 0.00 0.00 38 1008.6
20260508000300 8 261 1.6 6.4 0.00 0.00 0.00 38 1008.6
20260507235757 8 244 1.6 3.2 0.00 0.00 0.00 39 1008.7
20260507235254 9 251 1.6 3.2 0.00 0.00 0.00 38 1008.6
20260507234751 9 286 1.6 3.2 0.00 0.00 0.00 37 1008.7
20260507234248 10 210 3.2 4.8 0.00 0.00 0.00 36 1008.5
20260507233744 10 79 3.2 12.9 0.00 0.00 0.00 36 1008.5
20260507233242 10 236 3.2 9.7 0.00 0.00 0.00 37 1008.4
20260507232739 10 284 0.0 3.2 0.00 0.00 0.00 35 1008.5
20260507232236 10 315 0.0 1.6 0.00 0.00 0.00 36 1008.5
20260507231733 10 338 0.0 12.9 0.00 0.00 0.00 36 1008.2
20260507231230 10 247 1.6 4.8 0.00 0.00 0.00 35 1008.4
20260507230726 10 287 6.4 9.7 0.00 0.00 0.00 35 1008.5
20260507230224 10 287 3.2 9.7 0.00 0.00 0.00 34 1008.4
20260507225723 11 267 1.6 4.8 0.00 0.00 0.00 35 1008.5
20260507225220 11 198 3.2 6.4 0.00 0.00 0.00 36 1008.5
20260507224715 11 286 1.6 4.8 0.00 0.00 0.00 35 1008.4
20260507224212 11 182 4.8 14.5 0.00 0.00 0.00 33 1008.1
20260507223708 11 291 3.2 3.2 0.00 0.00 0.00 36 1008.2
20260507223206 11 262 3.2 9.7 0.00 0.00 0.00 34 1008.2
20260507222702 11 152 3.2 6.4 0.00 0.00 0.00 36 1008.2
20260507222159 11 251 1.6 6.4 0.00 0.00 0.00 34 1008.3
20260507221655 11 303 1.6 6.4 0.00 0.00 0.00 36 1008.5
20260507221151 11 255 1.6 4.8 0.00 0.00 0.00 36 1008.2
20260507220649 11 275 1.6 6.4 0.00 0.00 0.00 37 1008.4
20260507220147 11 274 1.6 11.3 0.00 0.00 0.00 35 1008.6
20260507215642 11 298 4.8 11.3 0.00 0.00 0.00 36 1008.5
20260507215140 11 185 4.8 6.4 0.00 0.00 0.00 34 1008.5
20260507214637 12 69 4.8 9.7 0.00 0.00 0.00 36 1008.5
20260507214134 12 79 3.2 6.4 0.00 0.00 0.00 38 1008.5
20260507213630 11 314 1.6 3.2 0.00 0.00 0.00 40 1008.4
20260507213127 11 243 0.0 4.8 0.00 0.00 0.00 40 1008.3
20260507212623 12 284 3.2 6.4 0.00 0.00 0.00 36 1008.6
20260507212120 12 290 3.2 3.2 0.00 0.00 0.00 37 1008.5
20260507211617 13 311 1.6 6.4 0.00 0.00 0.00 36 1008.5
20260507211112 12 272 1.6 9.7 0.00 0.00 0.00 40 1008.4
20260507210610 12 236 3.2 4.8 0.00 0.00 0.00 39 1008.4
20260507210107 12 299 1.6 6.4 0.00 0.00 0.00 41 1008.4
20260507205603 11 346 1.6 4.8 0.00 0.00 0.00 38 1008.3
20260507205100 11 235 4.8 6.4 0.00 0.00 0.00 42 1008.3
20260507204556 11 272 1.6 4.8 0.00 0.00 0.00 39 1008.5
20260507204054 11 32 3.2 4.8 0.00 0.00 0.00 39 1008.4
20260507203551 11 287 1.6 4.8 0.00 0.00 0.00 37 1008.5
20260507203049 11 280 3.2 12.9 0.00 0.00 0.00 38 1008.5
20260507202544 12 322 3.2 6.4 0.00 0.00 0.00 37 1008.4
20260507202040 13 281 1.6 9.7 0.00 0.00 0.00 37 1008.6
20260507201536 12 226 3.2 4.8 0.00 0.00 0.00 38 1008.4
20260507201033 12 280 3.2 6.4 0.00 0.00 0.00 36 1008.6
20260507200528 12 228 8.0 12.9 0.00 0.00 0.00 38 1008.6
20260507200025 11 260 0.0 6.4 0.00 0.00 0.00 40 1008.7
20260507195522 11 291 3.2 6.4 0.00 0.00 0.00 42 1008.7
20260507195020 11 171 4.8 9.7 0.00 0.00 0.00 40 1008.7
20260507194516 12 201 4.8 4.8 0.00 0.00 0.00 38 1008.8
20260507194012 13 232 3.2 4.8 0.00 0.00 0.00 40 1008.6
20260507193509 12 206 8.0 17.7 0.00 0.00 0.00 37 1008.5
20260507193006 12 121 3.2 6.4 0.00 0.00 0.00 39 1008.8
20260507192502 12 298 4.8 9.7 0.00 0.00 0.00 38 1008.8
20260507191959 12 316 4.8 6.4 0.00 0.00 0.00 38 1009.0
20260507191454 12 297 3.2 11.3 0.00 0.00 0.00 38 1008.9
20260507190951 12 315 6.4 16.1 0.00 0.00 0.00 37 1009.0
20260507190449 12 199 14.5 16.1 0.00 0.00 0.00 38 1008.9
20260507185948 13 257 6.4 14.5 0.00 0.00 0.00 35 1009.3
20260507185445 12 269 1.6 6.4 0.00 0.00 0.00 48 1009.1
20260507184941 12 159 3.2 6.4 0.00 0.00 0.00 38 1009.4
20260507184439 11 293 3.2 9.7 0.00 0.00 0.00 42 1009.3
20260507183937 12 276 8.0 12.9 0.00 0.00 0.00 39 1009.3
20260507183434 12 237 3.2 12.9 0.00 0.00 0.00 42 1009.5
20260507182931 12 192 9.7 11.3 0.00 0.00 0.00 41 1009.3
20260507182427 12 279 4.8 16.1 0.00 0.00 0.00 42 1009.3
20260507181923 12 290 6.4 9.7 0.00 0.00 0.00 39 1009.4
20260507181419 12 305 6.4 12.9 0.00 0.00 0.00 40 1009.7
20260507180916 11 261 6.4 17.7 0.00 0.00 0.00 41 1009.5
20260507180413 12 282 6.4 6.4 0.00 0.00 0.00 42 1009.5
20260507175909 12 264 6.4 9.7 0.00 0.00 0.00 41 1009.4
20260507175405 11 248 4.8 14.5 0.00 0.00 0.00 43 1009.6
20260507174903 11 235 6.4 9.7 0.00 0.00 0.00 43 1009.3
20260507174400 11 230 3.2 3.2 0.00 0.00 0.00 48 1009.6
20260507173858 12 237 3.2 9.7 0.00 0.00 0.00 46 1009.7
20260507173355 12 278 4.8 12.9 0.00 0.00 0.00 43 1009.7
20260507172851 12 277 4.8 9.7 0.00 0.00 0.00 44 1009.5
20260507172348 11 220 8.0 16.1 0.00 0.00 0.00 49 1009.8
20260507171844 11 297 3.2 6.4 0.00 0.00 0.00 45 1009.9
20260507171341 12 296 1.6 6.4 0.00 0.00 0.00 43 1009.6
20260507170838 12 285 3.2 11.3 0.00 0.00 0.00 43 1009.5
20260507170334 12 272 3.2 6.4 0.00 0.00 0.00 49 1009.7
20260507165830 11 286 1.6 11.3 0.00 0.00 0.00 44 1010.0
20260507165326 11 273 4.8 14.5 0.00 0.00 0.00 46 1009.8
20260507164822 12 246 3.2 9.7 0.00 0.00 0.00 45 1009.9
20260507164320 11 294 1.6 12.9 0.00 0.00 0.00 46 1009.9
20260507163817 12 249 3.2 6.4 0.00 0.00 0.00 49 1010.1
20260507163314 11 178 6.4 11.3 0.00 0.00 0.00 46 1009.9
20260507162810 11 227 6.4 11.3 0.00 0.00 0.00 44 1009.7
20260507162307 11 274 3.2 4.8 0.00 0.00 0.00 49 1010.3
20260507161803 11 300 9.7 16.1 0.00 0.00 0.00 45 1010.0
20260507161300 11 223 3.2 11.3 0.00 0.00 0.00 44 1010.2
20260507160756 10 328 3.2 4.8 0.00 0.00 0.00 47 1010.4
20260507160252 11 302 3.2 9.7 0.00 0.00 0.00 50 1010.6
20260507155748 11 338 8.0 9.7 0.00 0.00 0.00 44 1010.4
20260507155244 11 80 4.8 9.7 0.00 0.00 0.00 46 1010.7
20260507154741 12 245 9.7 9.7 0.00 0.00 0.00 47 1010.3
20260507154239 11 295 8.0 11.3 0.00 0.00 0.00 52 1010.5
20260507153735 11 123 3.2 9.7 0.00 0.00 0.00 44 1010.5
20260507153231 11 235 3.2 4.8 0.00 0.00 0.00 44 1010.5
20260507152728 10 185 3.2 6.4 0.00 0.00 0.00 49 1010.6
20260507152225 11 272 4.8 12.9 0.00 0.00 0.00 48 1010.3
20260507151720 10 300 6.4 11.3 0.00 0.00 0.00 47 1010.6
20260507151217 10 284 6.4 6.4 0.00 0.00 0.00 47 1010.6
20260507150714 10 301 3.2 6.4 0.00 0.00 0.00 50 1010.6
20260507150211 10 243 6.4 16.1 0.00 0.00 0.00 48 1010.8
20260507145707 10 143 6.4 11.3 0.00 0.00 0.00 46 1010.7
20260507145204 10 332 3.2 4.8 0.00 0.00 0.00 47 1010.7
20260507144700 10 300 4.8 9.7 0.00 0.00 0.00 48 1010.8
20260507144158 10 285 3.2 11.3 0.00 0.00 0.00 45 1010.9
20260507143655 10 329 3.2 6.4 0.00 0.00 0.00 46 1010.7
20260507143152 10 227 3.2 6.4 0.00 0.00 0.00 52 1010.9
20260507142647 10 234 3.2 4.8 0.00 0.00 0.00 52 1010.8
20260507142144 10 291 8.0 16.1 0.00 0.00 0.00 45 1010.8
20260507141641 10 276 1.6 4.8 0.00 0.00 0.00 53 1010.6
20260507141138 10 166 3.2 6.4 0.00 0.00 0.00 49 1010.8
20260507140634 10 161 4.8 6.4 0.00 0.00 0.00 50 1010.7
20260507140131 9 317 1.6 6.4 0.00 0.00 0.00 50 1010.9
20260507135628 9 232 4.8 6.4 0.00 0.00 0.00 47 1010.8
20260507135126 8 231 4.8 6.4 0.00 0.00 0.00 50 1011.0
20260507134622 8 280 3.2 3.2 0.00 0.00 0.00 49 1010.9
20260507134118 8 260 4.8 11.3 0.00 0.00 0.00 50 1010.9
20260507133614 8 313 1.6 3.2 0.00 0.00 0.00 54 1010.8
20260507133112 8 47 3.2 6.4 0.00 0.00 0.00 51 1010.9
20260507132609 8 295 3.2 3.2 0.00 0.00 0.00 52 1011.0
20260507132105 8 354 0.0 3.2 0.00 0.00 0.00 54 1011.0
20260507131602 8 309 1.6 1.6 0.00 0.00 0.00 53 1011.2
20260507131100 7 303 1.6 9.7 0.00 0.00 0.00 55 1011.1
20260507130556 7 258 1.6 1.6 0.00 0.00 0.00 60 1011.1
20260507130054 7 100 1.6 6.4 0.00 0.00 0.00 57 1011.1
20260507125553 7 296 3.2 3.2 0.00 0.00 0.00 65 1011.1
20260507125050 6 294 1.6 4.8 0.00 0.00 0.00 63 1011.0
20260507124546 6 197 3.2 6.4 0.00 0.00 0.00 64 1011.1
20260507124044 6 222 3.2 11.3 0.00 0.00 0.00 66 1011.0
20260507123542 6 220 1.6 4.8 0.00 0.00 0.00 67 1011.1
20260507123038 5 245 1.6 4.8 0.00 0.00 0.00 68 1010.9
20260507122533 5 276 0.0 4.8 0.00 0.00 0.00 67 1010.9
20260507122030 5 105 3.2 6.4 0.00 0.00 0.00 67 1010.8
20260507121525 5 283 1.6 1.6 0.00 0.00 0.00 72 1011.0
20260507121021 5 288 1.6 3.2 0.00 0.00 0.00 74 1011.0
20260507120518 5 294 0.0 11.3 0.00 0.00 0.00 72 1011.0
20260507120015 5 225 0.0 4.8 0.00 0.00 0.00 75 1010.8
20260507115511 4 299 0.0 3.2 0.00 0.00 0.00 77 1010.8
20260507115007 4 301 1.6 3.2 0.00 0.00 0.00 78 1010.8
20260507114503 4 218 3.2 3.2 0.00 0.00 0.00 76 1010.8
20260507114000 4 264 0.0 1.6 0.00 0.00 0.00 80 1010.9
20260507113458 3 275 0.0 3.2 0.00 0.00 0.00 80 1010.6
20260507112954 3 267 1.6 4.8 0.00 0.00 0.00 81 1010.8
20260507112452 3 326 1.6 1.6 0.00 0.00 0.00 81 1010.8
20260507111949 3 283 0.0 1.6 0.00 0.00 0.00 83 1011.0